WA1DLZ Weather Reports


Display with metric or nautical units.
time (UTC)temp
F
wind
direction
speed
MPH
gust
MPH
rain 1hr
in
rain 24hr
in
rain mn
in
humidity
%
barometer
mb
20260506033003 57 190 0.0 3.0 0.00 0.03 0.03 94 1005.9
20260506032503 57 184 1.0 3.0 0.00 0.03 0.03 95 1006.0
20260506032003 57 169 1.0 5.0 0.00 0.03 0.03 95 1005.9
20260506031503 57 198 0.0 2.0 0.00 0.03 0.03 96 1006.1
20260506031003 57 198 1.0 5.0 0.00 0.03 0.03 96 1006.0
20260506030503 58 198 1.0 3.0 0.00 0.03 0.03 95 1006.0
20260506030003 58 198 1.0 3.0 0.00 0.03 0.03 95 1006.1
20260506025503 58 199 0.0 5.0 0.00 0.03 0.03 95 1006.2
20260506025002 58 199 2.0 7.0 0.00 0.03 0.03 95 1006.4
20260506024503 58 202 1.0 3.0 0.00 0.03 0.03 95 1006.3
20260506024002 58 202 0.0 2.0 0.00 0.03 0.03 95 1006.3
20260506023502 58 202 1.0 6.0 0.00 0.03 0.03 95 1006.3
20260506023003 58 225 1.0 3.0 0.00 0.03 0.03 96 1006.3
20260506022503 58 178 1.0 5.0 0.00 0.03 0.03 96 1006.2
20260506022003 58 172 3.0 8.0 0.00 0.03 0.03 96 1006.2
20260506021503 58 190 1.0 3.0 0.00 0.03 0.03 96 1006.3
20260506021003 58 216 3.0 9.0 0.00 0.03 0.03 96 1006.4
20260506020503 58 181 3.0 10.0 0.00 0.03 0.03 96 1006.4
20260506020003 58 193 4.0 8.0 0.00 0.03 0.03 97 1006.6
20260506015503 58 199 4.0 9.0 0.00 0.03 0.03 97 1006.4
20260506015003 58 201 3.0 9.0 0.00 0.03 0.03 97 1006.3
20260506014003 58 223 0.0 0.0 0.00 0.03 0.03 97 1006.3
20260506013503 58 223 0.0 0.0 0.00 0.03 0.03 97 1006.0
20260506013003 58 223 0.0 0.0 0.00 0.03 0.03 96 1005.8
20260506012503 58 223 0.0 0.0 0.00 0.03 0.03 96 1005.7
20260506012003 58 223 0.0 0.0 0.00 0.03 0.03 96 1005.6
20260506011503 58 223 0.0 0.0 0.00 0.03 0.03 96 1005.6
20260506011003 58 223 0.0 0.0 0.00 0.03 0.03 96 1005.5
20260506010503 58 223 0.0 0.0 0.00 0.03 0.03 96 1005.5
20260506010002 58 223 0.0 0.0 0.00 0.03 0.03 96 1005.5
20260506005503 58 223 0.0 0.0 0.00 0.03 0.03 96 1005.5
20260506005003 58 223 0.0 0.0 0.00 0.03 0.03 96 1005.4
20260506004503 58 223 0.0 0.0 0.00 0.03 0.03 95 1005.3
20260506004003 58 223 0.0 0.0 0.00 0.03 0.03 95 1005.4
20260506003503 58 223 0.0 0.0 0.01 0.03 0.03 95 1005.3
20260506003002 59 223 0.0 0.0 0.01 0.03 0.03 95 1005.1
20260506002502 59 223 0.0 0.0 0.01 0.03 0.03 94 1004.9
20260506002003 59 223 0.0 0.0 0.02 0.03 0.03 94 1005.0
20260506001003 59 223 0.0 0.0 0.02 0.03 0.03 94 1004.9
20260506000003 59 223 0.0 0.0 0.02 0.03 0.03 94 1004.9
20260505235003 60 223 0.0 0.0 0.02 0.03 0.03 93 1004.8
20260505234503 60 223 0.0 0.0 0.02 0.03 0.03 92 1004.7
20260505234003 60 223 0.0 8.0 0.02 0.03 0.03 91 1004.8
20260505233502 61 242 5.0 12.0 0.01 0.02 0.02 90 1005.6
20260505232502 61 234 1.0 6.0 0.02 0.02 0.02 90 1005.4
20260505232003 61 248 0.0 1.0 0.01 0.01 0.01 90 1005.2
20260505231503 61 253 0.0 0.0 0.01 0.01 0.01 90 1005.1
20260505230503 61 253 0.0 0.0 0.01 0.01 0.01 88 1005.0
20260505230003 62 253 0.0 0.0 0.01 0.01 0.01 88 1004.9
20260505225003 63 253 0.0 0.0 0.01 0.01 0.01 86 1004.8
20260505224003 64 253 2.0 9.0 0.01 0.01 0.01 81 1004.8
20260505223503 65 213 1.0 9.0 0.01 0.01 0.01 77 1004.9
20260505223003 68 212 1.0 10.0 0.00 0.00 0.00 69 1004.8
20260505222503 68 213 0.0 6.0 0.00 0.00 0.00 59 1004.5
20260505222003 68 214 0.0 14.0 0.00 0.00 0.00 60 1002.5
20260505221503 68 211 2.0 12.0 0.00 0.00 0.00 59 1002.0
20260505221003 69 167 3.0 12.0 0.00 0.00 0.00 59 1001.8
20260505220503 69 165 6.0 14.0 0.00 0.00 0.00 57 1001.8
20260505220003 70 160 3.0 12.0 0.00 0.00 0.00 57 1001.7
20260505215503 71 162 5.0 13.0 0.00 0.00 0.00 56 1001.6
20260505215003 72 221 2.0 13.0 0.00 0.00 0.00 54 1001.5
20260505214503 72 185 4.0 13.0 0.00 0.00 0.00 54 1001.3
20260505214003 73 226 3.0 13.0 0.00 0.00 0.00 55 1001.5
20260505213503 73 172 6.0 14.0 0.00 0.00 0.00 53 1001.3
20260505212503 73 199 2.0 12.0 0.00 0.00 0.00 54 1001.5
20260505212003 73 207 5.0 14.0 0.00 0.00 0.00 53 1001.4
20260505211003 73 190 7.0 16.0 0.00 0.00 0.00 53 1001.5
20260505210503 73 194 6.0 20.0 0.00 0.00 0.00 52 1001.4
20260505210003 73 192 5.0 22.0 0.00 0.00 0.00 52 1001.5
20260505205503 74 199 8.0 17.0 0.00 0.00 0.00 51 1001.3
20260505205003 74 198 7.0 20.0 0.00 0.00 0.00 50 1001.4
20260505204503 75 189 9.0 20.0 0.00 0.00 0.00 50 1001.2
20260505204003 75 182 6.0 20.0 0.00 0.00 0.00 50 1001.2
20260505203503 75 202 7.0 17.0 0.00 0.00 0.00 50 1001.3
20260505203003 76 209 6.0 16.0 0.00 0.00 0.00 50 1001.2
20260505202503 76 191 6.0 18.0 0.00 0.00 0.00 50 1001.2
20260505202004 76 177 7.0 24.0 0.00 0.00 0.00 50 1001.2
20260505201503 77 200 8.0 24.0 0.00 0.00 0.00 48 1001.2
20260505201003 78 191 7.0 20.0 0.00 0.00 0.00 47 1001.3
20260505200504 78 213 3.0 12.0 0.00 0.00 0.00 48 1001.5
20260505200003 78 208 6.0 14.0 0.00 0.00 0.00 47 1001.4
20260505195503 77 188 6.0 17.0 0.00 0.00 0.00 50 1001.5
20260505195003 77 224 8.0 23.0 0.00 0.00 0.00 47 1001.5
20260505194503 77 189 6.0 17.0 0.00 0.00 0.00 47 1001.5
20260505194004 78 192 7.0 21.0 0.00 0.00 0.00 47 1001.6
20260505193503 78 175 7.0 20.0 0.00 0.00 0.00 45 1001.7
20260505193003 79 197 6.0 20.0 0.00 0.00 0.00 44 1001.7
20260505192503 79 200 7.0 22.0 0.00 0.00 0.00 45 1001.7
20260505192003 79 181 6.0 18.0 0.00 0.00 0.00 45 1001.9
20260505191503 80 203 3.0 17.0 0.00 0.00 0.00 44 1001.9
20260505191003 80 168 6.0 20.0 0.00 0.00 0.00 45 1001.9
20260505190503 80 181 7.0 18.0 0.00 0.00 0.00 44 1001.9
20260505190004 80 197 8.0 20.0 0.00 0.00 0.00 46 1002.0
20260505185503 80 175 2.0 10.0 0.00 0.00 0.00 45 1002.0
20260505184503 80 156 6.0 20.0 0.00 0.00 0.00 45 1002.1
20260505183503 80 157 2.0 13.0 0.00 0.00 0.00 44 1002.1
20260505183004 80 170 3.0 13.0 0.00 0.00 0.00 43 1002.2
20260505182503 80 169 3.0 12.0 0.00 0.00 0.00 45 1002.2
20260505182003 80 141 2.0 14.0 0.00 0.00 0.00 45 1002.1
20260505181503 80 189 1.0 12.0 0.00 0.00 0.00 45 1002.3
20260505181003 80 182 2.0 10.0 0.00 0.00 0.00 44 1002.3
20260505180504 79 193 3.0 15.0 0.00 0.00 0.00 46 1002.5
20260505180003 79 179 6.0 17.0 0.00 0.00 0.00 47 1002.6
20260505175503 79 186 3.0 16.0 0.00 0.00 0.00 46 1002.7
20260505175003 78 176 7.0 16.0 0.00 0.00 0.00 47 1002.8
20260505174503 78 177 9.0 20.0 0.00 0.00 0.00 46 1002.9
20260505174003 78 190 4.0 15.0 0.00 0.00 0.00 45 1002.9
20260505173003 78 236 6.0 15.0 0.00 0.00 0.00 45 1003.1
20260505172003 79 184 5.0 18.0 0.00 0.00 0.00 45 1003.3
20260505171504 78 187 4.0 13.0 0.00 0.00 0.00 45 1003.3
20260505170504 78 192 5.0 13.0 0.00 0.00 0.00 46 1003.4
20260505170003 78 178 4.0 13.0 0.00 0.00 0.00 45 1003.4
20260505165504 78 195 2.0 10.0 0.00 0.00 0.00 44 1003.4
20260505165003 78 211 4.0 15.0 0.00 0.00 0.00 44 1003.6
20260505164503 78 195 5.0 20.0 0.00 0.00 0.00 46 1003.4
20260505164003 77 203 7.0 17.0 0.00 0.00 0.00 47 1003.7
20260505163004 77 201 5.0 15.0 0.00 0.01 0.00 47 1004.0
20260505162503 77 175 3.0 13.0 0.00 0.02 0.00 46 1003.9
20260505162003 76 201 3.0 18.0 0.00 0.02 0.00 47 1004.1
20260505161503 76 203 8.0 18.0 0.00 0.02 0.00 45 1004.2
20260505161004 75 211 7.0 15.0 0.00 0.02 0.00 46 1004.4
20260505160503 75 196 2.0 13.0 0.00 0.02 0.00 48 1004.4
20260505153003 72 221 3.0 17.0 0.00 0.02 0.00 48 1005.3
20260505152004 73 217 3.0 12.0 0.00 0.02 0.00 47 1005.3
20260505151503 74 221 4.0 10.0 0.00 0.02 0.00 46 1005.3
20260505151003 73 189 4.0 10.0 0.00 0.02 0.00 49 1005.4
20260505150504 72 214 3.0 12.0 0.00 0.02 0.00 50 1005.4
20260505140503 67 209 2.0 7.0 0.00 0.02 0.00 57 1005.5
20260505125004 59 212 0.0 1.0 0.00 0.02 0.00 69 1006.0
20260505124503 59 232 1.0 7.0 0.00 0.02 0.00 68 1006.0
20260505124004 58 188 0.0 6.0 0.00 0.02 0.00 71 1006.1
20260505123503 58 225 1.0 8.0 0.00 0.02 0.00 70 1006.2
20260505123004 57 205 1.0 7.0 0.00 0.02 0.00 72 1006.2
20260505122504 57 203 1.0 5.0 0.00 0.02 0.00 69 1006.1
20260505122003 56 223 0.0 3.0 0.00 0.02 0.00 71 1006.2
20260505121503 56 186 1.0 7.0 0.00 0.02 0.00 72 1006.3
20260505121003 55 156 0.0 7.0 0.00 0.02 0.00 73 1006.3
20260505120504 55 211 1.0 3.0 0.00 0.02 0.00 73 1006.5
20260505120004 55 211 0.0 3.0 0.00 0.02 0.00 74 1006.5
20260505115505 55 211 0.0 0.0 0.00 0.02 0.00 74 1006.5
20260505115003 54 211 1.0 3.0 0.00 0.02 0.00 72 1006.5
20260505114503 54 211 0.0 2.0 0.00 0.02 0.00 74 1006.5
20260505114004 54 223 0.0 3.0 0.00 0.02 0.00 74 1006.4
20260505113503 54 208 0.0 7.0 0.00 0.02 0.00 75 1006.5
20260505112503 53 209 0.0 3.0 0.00 0.02 0.00 76 1006.4
20260505112003 53 269 0.0 0.0 0.00 0.02 0.00 76 1006.4
20260505111504 53 269 0.0 0.0 0.00 0.02 0.00 76 1006.5
20260505111004 52 269 0.0 0.0 0.00 0.02 0.00 79 1006.5
20260505110503 52 269 0.0 0.0 0.00 0.02 0.00 78 1006.4
20260505102004 47 269 0.0 0.0 0.00 0.02 0.00 90 1006.2
20260505101504 46 269 0.0 0.0 0.00 0.02 0.00 91 1006.3
20260505101003 46 269 0.0 0.0 0.00 0.02 0.00 91 1006.3
20260505100504 45 269 0.0 0.0 0.00 0.02 0.00 91 1006.3
20260505095504 45 269 0.0 0.0 0.00 0.02 0.00 91 1006.2
20260505095003 45 269 0.0 0.0 0.00 0.02 0.00 90 1006.2
20260505094503 45 269 0.0 0.0 0.00 0.02 0.00 90 1006.2
20260505094004 45 269 0.0 0.0 0.00 0.02 0.00 90 1006.2
20260505093504 45 269 0.0 0.0 0.00 0.02 0.00 90 1006.1
20260505093004 45 269 0.0 0.0 0.00 0.02 0.00 89 1006.1
20260505092504 45 269 0.0 0.0 0.00 0.02 0.00 89 1006.1
20260505092004 45 269 0.0 1.0 0.00 0.02 0.00 89 1006.1
20260505091504 45 269 0.0 0.0 0.00 0.02 0.00 89 1006.1
20260505091004 45 269 0.0 0.0 0.00 0.02 0.00 89 1006.1
20260505090504 45 269 0.0 1.0 0.00 0.02 0.00 88 1006.2
20260505090004 45 269 0.0 0.0 0.00 0.02 0.00 89 1006.2
20260505085504 45 269 0.0 0.0 0.00 0.02 0.00 87 1006.3
20260505084503 45 269 0.0 0.0 0.00 0.02 0.00 87 1006.3
20260505084004 45 269 0.0 0.0 0.00 0.02 0.00 87 1006.3
20260505083504 46 269 0.0 0.0 0.00 0.02 0.00 86 1006.4
20260505083004 46 269 0.0 0.0 0.00 0.02 0.00 85 1006.4
20260505082503 46 269 0.0 0.0 0.00 0.02 0.00 85 1006.4
20260505082004 46 269 0.0 0.0 0.00 0.02 0.00 84 1006.5
20260505081504 47 269 0.0 0.0 0.00 0.02 0.00 83 1006.5
20260505081004 47 269 0.0 0.0 0.00 0.02 0.00 83 1006.6
20260505080504 47 269 0.0 0.0 0.00 0.02 0.00 82 1006.6
20260505075504 47 268 0.0 0.0 0.00 0.02 0.00 80 1006.6
20260505075004 48 268 1.0 5.0 0.00 0.02 0.00 80 1006.6
20260505074504 48 268 0.0 1.0 0.00 0.02 0.00 78 1006.6
20260505074004 49 267 0.0 0.0 0.00 0.02 0.00 77 1006.6
20260505073504 50 267 0.0 5.0 0.00 0.02 0.00 76 1006.6
20260505073004 50 232 0.0 0.0 0.00 0.02 0.00 74 1006.6
20260505072504 51 232 0.0 1.0 0.00 0.02 0.00 73 1006.5
20260505072004 52 232 0.0 2.0 0.00 0.02 0.00 70 1006.4
20260505071504 53 232 0.0 7.0 0.00 0.02 0.00 69 1006.5
20260505070004 56 212 1.0 3.0 0.00 0.02 0.00 60 1006.4
20260505065504 56 242 1.0 7.0 0.00 0.02 0.00 61 1006.5
20260505065004 57 219 1.0 14.0 0.00 0.02 0.00 61 1006.4
20260505064504 56 244 2.0 12.0 0.00 0.02 0.00 62 1006.3
20260505064004 55 223 5.0 14.0 0.00 0.02 0.00 64 1006.3
20260505063504 55 225 2.0 13.0 0.00 0.02 0.00 64 1006.3
20260505063004 55 228 6.0 12.0 0.00 0.02 0.00 65 1006.3
20260505062504 55 227 6.0 14.0 0.00 0.02 0.00 67 1006.2
20260505062004 55 228 7.0 20.0 0.00 0.02 0.00 66 1006.2
20260505061504 54 226 3.0 12.0 0.00 0.02 0.00 68 1006.4
20260505061004 53 227 6.0 14.0 0.00 0.02 0.00 71 1006.4
20260505060504 51 222 6.0 13.0 0.00 0.02 0.00 76 1006.5
20260505060004 49 217 2.0 15.0 0.00 0.02 0.00 82 1006.5
20260505055504 46 243 2.0 9.0 0.00 0.02 0.00 88 1006.4
20260505055004 45 236 1.0 10.0 0.00 0.02 0.00 90 1006.5
20260505054504 45 274 0.0 2.0 0.00 0.02 0.00 89 1006.5
20260505054004 46 274 0.0 5.0 0.00 0.02 0.00 89 1006.6
20260505053504 45 318 0.0 3.0 0.00 0.02 0.00 89 1006.6
20260505053004 46 211 1.0 3.0 0.00 0.02 0.00 90 1006.5
20260505052504 45 238 1.0 8.0 0.00 0.02 0.00 90 1006.4
20260505052004 45 228 0.0 0.0 0.00 0.02 0.00 91 1006.3
20260505051504 45 228 0.0 0.0 0.00 0.02 0.00 91 1006.4
20260505051004 45 228 0.0 0.0 0.00 0.02 0.00 90 1006.5
20260505050504 45 228 0.0 0.0 0.00 0.02 0.00 90 1006.5
20260505041502 45 228 0.0 0.0 0.00 0.02 0.00 91 1006.2
20260505040503 46 228 0.0 0.0 0.00 0.02 0.00 90 1006.2
20260505040004 46 228 0.0 0.0 0.00 0.02 0.00 90 1006.2
20260505035003 46 228 0.0 0.0 0.00 0.02 0.02 90 1006.2
20260505034502 47 228 0.0 0.0 0.00 0.02 0.02 90 1006.2
20260505034003 47 228 0.0 0.0 0.00 0.02 0.02 90 1006.2
20260505033503 47 228 0.0 0.0 0.00 0.02 0.02 90 1006.1